DW4219 Weather Reports


Display with metric or nautical units.
time (UTC)temp
F
wind
direction
speed
MPH
gust
MPH
rain 1hr
in
rain 24hr
in
rain mn
in
humidity
%
barometer
mb
20260904193028 78 212 16.0 27.0 0.00 0.00 0.00 24 1007.7
20260904191527 78 165 14.0 26.0 0.00 0.00 0.00 24 1008.0
20260904190032 77 214 10.0 25.0 0.00 0.00 0.00 25 1008.2
20260904184523 77 228 15.0 29.0 0.00 0.00 0.00 26 1008.4
20260904183025 76 210 13.0 25.0 0.00 0.00 0.00 26 1008.6
20260904181529 76 162 18.0 26.0 0.00 0.00 0.00 28 1008.7
20260904180019 75 163 15.0 30.0 0.00 0.00 0.00 29 1008.7
20260904174516 75 196 12.0 26.0 0.00 0.00 0.00 30 1008.7
20260904173033 74 194 17.0 29.0 0.00 0.00 0.00 29 1008.7
20260904171513 74 213 18.0 33.0 0.00 0.00 0.00 29 1008.8
20260904170011 73 143 13.0 27.0 0.00 0.00 0.00 28 1008.7
20260904164510 73 164 14.0 25.0 0.00 0.00 0.00 27 1008.6
20260904163007 73 168 13.0 24.0 0.00 0.00 0.00 26 1008.5
20260904161511 72 191 18.0 29.0 0.00 0.00 0.00 26 1008.3
20260904160003 72 179 17.0 27.0 0.00 0.00 0.00 26 1008.4
20260904154501 71 162 17.0 32.0 0.00 0.00 0.00 26 1008.2
20260904153101 71 191 16.0 30.0 0.00 0.00 0.00 25 1008.2
20260904151601 71 202 12.0 22.0 0.00 0.00 0.00 25 1008.2
20260904150056 70 141 13.0 21.0 0.00 0.00 0.00 24 1008.1
20260904144608 70 172 10.0 20.0 0.00 0.00 0.00 24 1008.2
20260904143058 69 205 15.0 23.0 0.00 0.00 0.00 24 1008.1
20260904141551 69 224 12.0 20.0 0.00 0.00 0.00 25 1008.0
20260904140046 68 176 14.0 20.0 0.00 0.00 0.00 25 1007.8
20260904134544 67 205 10.0 16.0 0.00 0.00 0.00 25 1007.7
20260904133051 65 179 8.0 14.0 0.00 0.00 0.00 26 1007.6
20260904131545 65 209 7.0 13.0 0.00 0.00 0.00 26 1007.6
20260904130041 64 194 7.0 16.0 0.00 0.00 0.00 27 1007.8
20260904124539 64 207 5.0 12.0 0.00 0.00 0.00 28 1007.6
20260904123039 63 205 1.0 8.0 0.00 0.00 0.00 31 1007.6
20260904121537 63 195 0.0 4.0 0.00 0.00 0.00 32 1007.7
20260904120034 64 182 2.0 8.0 0.00 0.00 0.00 32 1007.7
20260904114531 64 200 2.0 14.0 0.00 0.00 0.00 31 1007.6
20260904113030 65 188 5.0 12.0 0.00 0.00 0.00 31 1007.6
20260904111528 65 181 5.0 12.0 0.00 0.00 0.00 31 1007.5
20260904110026 66 176 7.0 18.0 0.00 0.00 0.00 29 1007.3
20260904104523 66 179 7.0 16.0 0.00 0.00 0.00 29 1007.2
20260904103024 66 160 8.0 14.0 0.00 0.00 0.00 28 1007.2
20260904101522 66 181 6.0 12.0 0.00 0.00 0.00 28 1007.0
20260904100019 66 181 6.0 17.0 0.00 0.00 0.00 27 1006.9
20260904094520 67 194 9.0 16.0 0.00 0.00 0.00 26 1006.9
20260904093015 67 202 7.0 18.0 0.00 0.00 0.00 25 1006.8
20260904091529 66 209 6.0 13.0 0.00 0.00 0.00 25 1006.9
20260904090015 66 225 2.0 10.0 0.00 0.00 0.00 24 1006.9
20260904084510 66 196 3.0 9.0 0.00 0.00 0.00 22 1006.7
20260904083020 66 221 5.0 11.0 0.00 0.00 0.00 22 1006.9
20260904081507 67 161 3.0 10.0 0.00 0.00 0.00 21 1007.0
20260904080009 67 161 6.0 14.0 0.00 0.00 0.00 20 1007.1
20260904074506 68 162 7.0 14.0 0.00 0.00 0.00 20 1007.1
20260904073001 68 195 6.0 15.0 0.00 0.00 0.00 20 1007.0
20260904071626 67 230 5.0 15.0 0.00 0.00 0.00 21 1006.9
20260904070112 66 226 0.0 4.0 0.00 0.00 0.00 20 1006.9
20260904064607 67 160 0.0 5.0 0.00 0.00 0.00 20 1006.8
20260904063058 68 234 6.0 12.0 0.00 0.00 0.00 20 1006.7
20260904061554 68 171 7.0 12.0 0.00 0.00 0.00 20 1006.8
20260904060049 66 184 3.0 7.0 0.00 0.00 0.00 21 1006.8
20260904054549 66 266 0.0 3.0 0.00 0.00 0.00 21 1006.9
20260904053059 67 133 1.0 7.0 0.00 0.00 0.00 19 1007.0
20260904051548 68 129 1.0 6.0 0.00 0.00 0.00 19 1007.0
20260904050051 67 153 1.0 6.0 0.00 0.00 0.00 19 1007.0
20260904044549 67 127 0.0 2.0 0.00 0.00 0.00 18 1007.2
20260904043048 67 275 0.0 2.0 0.00 0.00 0.00 18 1007.3
20260904041547 69 57 0.0 2.0 0.00 0.00 0.00 16 1007.1
20260904040045 70 156 0.0 5.0 0.00 0.00 0.00 16 1007.0
20260904034546 71 228 5.0 12.0 0.00 0.00 0.00 15 1006.8
20260904033054 71 219 5.0 9.0 0.00 0.00 0.00 15 1006.6
20260904031600 72 210 7.0 16.0 0.00 0.00 0.00 15 1006.6
20260904030043 72 228 3.0 15.0 0.00 0.00 0.00 15 1006.5
20260904024542 72 218 2.0 8.0 0.00 0.00 0.00 14 1006.3
20260904023041 72 201 4.0 9.0 0.00 0.00 0.00 14 1006.2
20260904021548 73 211 3.0 14.0 0.00 0.00 0.00 13 1006.1
20260904020042 74 198 4.0 13.0 0.00 0.00 0.00 12 1005.9
20260904014543 76 203 9.0 16.0 0.00 0.00 0.00 11 1006.0
20260904013040 78 226 9.0 19.0 0.00 0.00 0.00 11 1006.1
20260904011538 78 169 11.0 21.0 0.00 0.00 0.00 11 1006.0
20260904010038 79 226 9.0 21.0 0.00 0.00 0.00 11 1006.2
20260904004535 79 218 8.0 24.0 0.00 0.00 0.00 11 1006.2
20260904003035 80 143 12.0 28.0 0.00 0.00 0.00 11 1006.1
20260904001537 80 222 14.0 27.0 0.00 0.00 0.00 12 1006.2
20260904000033 80 213 14.0 24.0 0.00 0.00 0.00 12 1006.1
20260903234531 80 210 14.0 32.0 0.00 0.00 0.00 12 1006.3
20260903233034 80 199 16.0 26.0 0.00 0.00 0.00 13 1006.4
20260903231530 80 202 14.0 23.0 0.00 0.00 0.00 13 1006.5
20260903230028 80 190 12.0 25.0 0.00 0.00 0.00 14 1006.7
20260903224533 80 214 12.0 25.0 0.00 0.00 0.00 14 1006.9
20260903223024 80 176 11.0 24.0 0.00 0.00 0.00 15 1007.2
20260903221540 80 198 9.0 25.0 0.00 0.00 0.00 14 1007.4
20260903220020 80 189 13.0 22.0 0.00 0.00 0.00 15 1007.6
20260903214518 79 181 14.0 27.0 0.00 0.00 0.00 14 1007.7
20260903213020 79 181 11.0 21.0 0.00 0.00 0.00 14 1007.8
20260903211514 79 202 13.0 28.0 0.00 0.00 0.00 15 1008.0
20260903210015 79 185 15.0 24.0 0.00 0.00 0.00 14 1008.1
20260903204510 78 210 12.0 23.0 0.00 0.00 0.00 14 1008.2
20260903203110 78 201 15.0 28.0 0.00 0.00 0.00 14 1008.3
20260903201508 78 157 19.0 27.0 0.00 0.00 0.00 14 1008.5
20260903200013 77 190 15.0 27.0 0.00 0.00 0.00 14 1008.6
20260903194515 77 175 13.0 24.0 0.00 0.00 0.00 14 1008.8